Dades meteomassalio
Diari Summary for Juny 19, 2017 Units:  Metric    English   Both
« Previous Day
Next Day »
Diari Semanal Mensual Anual Personalitzat
  Maxima: Minima: Mijana:
Temperatura: 33.3 °C 18.0 °C 27.1 °C
Rosada: 19.7 °C 11.7 °C 14.9 °C
Humitat: 69 % 35 % 48 %
Velocitat del vent: 37.0 km/h 0.0 km/h 12.2 km/h
Racha vent: 37.0 km/h - -
Vent:- - SE
Pressio: 1017.2 hPa 1014.1 hPa -
Pluja: 0.0 mm    
Historical Graphs
 
 
Tabular Data for Juny 19, 2017
Time Temperature Dew Point Pressure Wind Wind Speed Wind Gust Humidity Rainfall Rate (Hourly) solar Conditions
00:03 25.5 °C 13.1 °C 1015.1 hPa South 3.7 km/h   46 % 0.0 mm 0.0 W/m2 CLR
00:07 25.4 °C 12.9 °C 1015.1 hPa Calm     46 % 0.0 mm 0.0 W/m2 CLR
00:12 25.4 °C 12.6 °C 1015.1 hPa Calm     45 % 0.0 mm 0.0 W/m2 CLR
00:18 25.4 °C 12.6 °C 1015.1 hPa SSE 8.0 km/h 8.0 km/h 45 % 0.0 mm 0.0 W/m2 CLR
00:23 25.3 °C 12.6 °C 1015.1 hPa SE 7.4 km/h 7.4 km/h 45 % 0.0 mm 0.0 W/m2 CLR
00:28 25.2 °C 12.8 °C 1015.1 hPa Calm     46 % 0.0 mm 0.0 W/m2 CLR
00:33 25.1 °C 12.6 °C 1015.1 hPa Calm     46 % 0.0 mm 0.0 W/m2 CLR
00:38 24.9 °C 12.5 °C 1015.1 hPa Calm     46 % 0.0 mm 0.0 W/m2 CLR
00:43 24.8 °C 12.4 °C 1015.1 hPa Calm     46 % 0.0 mm 0.0 W/m2 CLR
00:48 24.8 °C 12.4 °C 1015.1 hPa Calm     46 % 0.0 mm 0.0 W/m2 CLR
00:53 24.8 °C 12.1 °C 1015.1 hPa SSE 9.3 km/h 9.3 km/h 45 % 0.0 mm 0.0 W/m2 CLR
00:58 24.9 °C 12.2 °C 1015.1 hPa SE 9.3 km/h 9.3 km/h 45 % 0.0 mm 0.0 W/m2 CLR
01:03 24.9 °C 12.2 °C 1015.1 hPa SSE 7.4 km/h 7.4 km/h 45 % 0.0 mm 0.0 W/m2 CLR
01:08 24.8 °C 12.1 °C 1015.1 hPa Calm     45 % 0.0 mm 0.0 W/m2 CLR
01:13 24.7 °C 11.9 °C 1015.1 hPa Calm     45 % 0.0 mm 0.0 W/m2 CLR
01:18 24.5 °C 12.1 °C 1015.1 hPa Calm     46 % 0.0 mm 0.0 W/m2 CLR
01:24 24.4 °C 12.0 °C 1015.1 hPa Calm     46 % 0.0 mm 0.0 W/m2 CLR
01:29 24.2 °C 12.2 °C 1015.1 hPa Calm     47 % 0.0 mm 0.0 W/m2 CLR
01:34 23.9 °C 11.9 °C 1015.1 hPa Calm     47 % 0.0 mm 0.0 W/m2 CLR
01:39 23.6 °C 11.9 °C 1015.1 hPa Calm     48 % 0.0 mm 0.0 W/m2 CLR
01:44 23.7 °C 11.7 °C 1015.1 hPa Calm     47 % 0.0 mm 0.0 W/m2 CLR
01:49 23.9 °C 11.9 °C 1015.1 hPa Calm     47 % 0.0 mm 0.0 W/m2 CLR
01:54 23.9 °C 12.2 °C 1015.5 hPa Calm     48 % 0.0 mm 0.0 W/m2 CLR
01:59 23.7 °C 12.1 °C 1015.5 hPa Calm     48 % 0.0 mm 0.0 W/m2 CLR
02:04 23.6 °C 12.2 °C 1015.5 hPa Calm     49 % 0.0 mm 0.0 W/m2 CLR
02:09 23.3 °C 12.0 °C 1015.5 hPa Calm     49 % 0.0 mm 0.0 W/m2 CLR
02:14 23.1 °C 12.4 °C 1015.5 hPa Calm     51 % 0.0 mm 0.0 W/m2 CLR
02:19 22.8 °C 12.2 °C 1015.5 hPa Calm     51 % 0.0 mm 0.0 W/m2 CLR
02:24 22.7 °C 12.0 °C 1015.5 hPa Calm     51 % 0.0 mm 0.0 W/m2 CLR
02:29 22.4 °C 12.1 °C 1015.5 hPa Calm     52 % 0.0 mm 0.0 W/m2 CLR
02:34 22.3 °C 11.9 °C 1015.5 hPa Calm     52 % 0.0 mm 0.0 W/m2 CLR
02:39 22.2 °C 11.8 °C 1015.5 hPa Calm     52 % 0.0 mm 0.0 W/m2 CLR
02:44 22.2 °C 11.8 °C 1015.5 hPa Calm     52 % 0.0 mm 0.0 W/m2 CLR
02:49 22.2 °C 12.7 °C 1015.5 hPa Calm     55 % 0.0 mm 0.0 W/m2 CLR
02:54 21.9 °C 12.7 °C 1015.5 hPa Calm     56 % 0.0 mm 0.0 W/m2 CLR
02:59 21.6 °C 12.4 °C 1015.5 hPa Calm     56 % 0.0 mm 0.0 W/m2 CLR
03:04 21.3 °C 12.2 °C 1015.5 hPa Calm     56 % 0.0 mm 0.0 W/m2 CLR
03:09 21.2 °C 11.8 °C 1015.5 hPa Calm     55 % 0.0 mm 0.0 W/m2 CLR
03:14 21.2 °C 12.6 °C 1015.5 hPa Calm     58 % 0.0 mm 0.0 W/m2 CLR
03:19 21.1 °C 12.4 °C 1015.5 hPa Calm     58 % 0.0 mm 0.0 W/m2 CLR
03:24 20.9 °C 12.4 °C 1015.5 hPa Calm     58 % 0.0 mm 0.0 W/m2 CLR
03:29 20.7 °C 12.4 °C 1015.5 hPa Calm     59 % 0.0 mm 0.0 W/m2 CLR
03:34 20.5 °C 12.4 °C 1015.5 hPa Calm     60 % 0.0 mm 0.0 W/m2 CLR
03:39 20.4 °C 12.2 °C 1015.5 hPa Calm     59 % 0.0 mm 0.0 W/m2 CLR
03:44 20.3 °C 12.3 °C 1015.5 hPa Calm     60 % 0.0 mm 0.0 W/m2 CLR
03:49 20.2 °C 12.4 °C 1015.5 hPa Calm     61 % 0.0 mm 0.0 W/m2 CLR
03:54 20.2 °C 12.2 °C 1015.5 hPa Calm     60 % 0.0 mm 0.0 W/m2 CLR
03:59 20.1 °C 12.3 °C 1015.5 hPa Calm     61 % 0.0 mm 0.0 W/m2 CLR
04:04 20.0 °C 12.5 °C 1015.1 hPa Calm     62 % 0.0 mm 0.0 W/m2 CLR
04:09 19.9 °C 12.4 °C 1015.5 hPa Calm     62 % 0.0 mm 0.0 W/m2 CLR
04:14 19.8 °C 12.3 °C 1015.1 hPa Calm     62 % 0.0 mm 0.0 W/m2 CLR
04:19 19.7 °C 12.5 °C 1015.1 hPa Calm     63 % 0.0 mm 0.0 W/m2 CLR
04:24 19.7 °C 12.4 °C 1015.5 hPa Calm     63 % 0.0 mm 0.0 W/m2 CLR
04:29 19.6 °C 12.6 °C 1015.1 hPa Calm     64 % 0.0 mm 0.0 W/m2 CLR
04:34 19.4 °C 12.4 °C 1015.1 hPa Calm     64 % 0.0 mm 0.0 W/m2 CLR
04:39 19.3 °C 12.6 °C 1015.1 hPa Calm     65 % 0.0 mm 0.0 W/m2 CLR
04:44 19.2 °C 12.5 °C 1015.1 hPa Calm     65 % 0.0 mm 0.0 W/m2 CLR
04:49 19.1 °C 12.6 °C 1015.1 hPa Calm     66 % 0.0 mm 0.0 W/m2 CLR
04:54 19.1 °C 12.3 °C 1015.1 hPa Calm     65 % 0.0 mm 0.0 W/m2 CLR
04:59 19.1 °C 12.6 °C 1015.1 hPa Calm     66 % 0.0 mm 0.0 W/m2 CLR
05:04 19.1 °C 12.6 °C 1015.1 hPa Calm     66 % 0.0 mm 0.0 W/m2 CLR
05:09 19.0 °C 12.3 °C 1015.1 hPa Calm     65 % 0.0 mm 0.0 W/m2 CLR
05:14 19.0 °C 12.3 °C 1015.1 hPa Calm     65 % 0.0 mm 0.0 W/m2 CLR
05:19 19.0 °C 12.3 °C 1015.1 hPa Calm     65 % 0.0 mm 0.0 W/m2 CLR
05:24 18.9 °C 12.4 °C 1015.1 hPa Calm     66 % 0.0 mm 0.0 W/m2 CLR
05:29 18.8 °C 12.3 °C 1015.1 hPa Calm     66 % 0.0 mm 0.0 W/m2 CLR
05:35 18.7 °C 12.4 °C 1015.1 hPa Calm     67 % 0.0 mm 0.0 W/m2 CLR
05:39 18.7 °C 12.4 °C 1015.1 hPa Calm     67 % 0.0 mm 0.0 W/m2 CLR
05:45 18.6 °C 12.3 °C 1015.5 hPa Calm     67 % 0.0 mm 0.0 W/m2 CLR
05:50 18.4 °C 12.4 °C 1015.5 hPa Calm     68 % 0.0 mm 0.0 W/m2 CLR
05:55 18.4 °C 12.4 °C 1015.5 hPa Calm     68 % 0.0 mm 0.0 W/m2 CLR
06:00 18.4 °C 12.2 °C 1015.1 hPa Calm     67 % 0.0 mm 0.0 W/m2 CLR
06:05 18.4 °C 11.9 °C 1015.5 hPa Calm     66 % 0.0 mm 0.0 W/m2 CLR
06:10 18.4 °C 12.0 °C 1015.5 hPa Calm     66 % 0.0 mm 0.0 W/m2 CLR
06:15 18.5 °C 12.3 °C 1015.5 hPa Calm     67 % 0.0 mm 0.0 W/m2 CLR
06:20 18.4 °C 12.2 °C 1015.5 hPa Calm     67 % 0.0 mm 0.0 W/m2 OVC
06:25 18.3 °C 12.1 °C 1015.5 hPa Calm     67 % 0.0 mm 0.0 W/m2 OVC
06:30 18.3 °C 12.1 °C 1015.5 hPa Calm     67 % 0.0 mm 5.0 W/m2 OVC
06:35 18.2 °C 11.9 °C 1015.5 hPa Calm     67 % 0.0 mm 9.0 W/m2 BKN
06:40 18.2 °C 11.9 °C 1015.5 hPa Calm     67 % 0.0 mm 11.0 W/m2 BKN
06:45 18.2 °C 11.9 °C 1015.8 hPa Calm     67 % 0.0 mm 14.0 W/m2 BKN
06:50 18.2 °C 12.2 °C 1015.8 hPa Calm     68 % 0.0 mm 16.0 W/m2 BKN
06:55 18.1 °C 12.1 °C 1015.8 hPa Calm     68 % 0.0 mm 19.0 W/m2 BKN
07:00 18.1 °C 12.1 °C 1015.8 hPa Calm     68 % 0.0 mm 23.0 W/m2 BKN
07:05 18.0 °C 12.2 °C 1015.8 hPa Calm     69 % 0.0 mm 28.0 W/m2 BKN
07:10 18.0 °C 12.2 °C 1015.8 hPa Calm     69 % 0.0 mm 39.0 W/m2 BKN
07:15 18.2 °C 12.4 °C 1015.8 hPa Calm     69 % 0.0 mm 49.0 W/m2 SCT
07:20 18.3 °C 12.3 °C 1016.1 hPa Calm     68 % 0.0 mm 58.0 W/m2 SCT
07:25 18.6 °C 12.3 °C 1016.1 hPa Calm     67 % 0.0 mm 69.0 W/m2 FEW
07:30 18.9 °C 12.4 °C 1016.1 hPa Calm     66 % 0.0 mm 81.0 W/m2 FEW
07:35 19.2 °C 12.5 °C 1016.1 hPa Calm     65 % 0.0 mm 95.0 W/m2 FEW
07:40 19.4 °C 12.4 °C 1016.1 hPa Calm     64 % 0.0 mm 107.0 W/m2 CLR
07:45 19.7 °C 12.7 °C 1016.1 hPa Calm     64 % 0.0 mm 121.0 W/m2 CLR
07:50 20.1 °C 12.8 °C 1016.1 hPa Calm     63 % 0.0 mm 137.0 W/m2 CLR
07:55 20.5 °C 13.2 °C 1016.5 hPa Calm     63 % 0.0 mm 155.0 W/m2 CLR
08:00 20.8 °C 13.1 °C 1016.5 hPa Calm     61 % 0.0 mm 171.0 W/m2 CLR
08:05 21.3 °C 13.4 °C 1016.5 hPa Calm     61 % 0.0 mm 186.0 W/m2 CLR
08:10 21.7 °C 13.6 °C 1016.5 hPa Calm     60 % 0.0 mm 200.0 W/m2 CLR
08:15 22.3 °C 13.9 °C 1016.5 hPa Calm     59 % 0.0 mm 218.0 W/m2 CLR
08:20 22.7 °C 14.0 °C 1016.5 hPa Calm     58 % 0.0 mm 234.0 W/m2 CLR
08:25 23.0 °C 14.6 °C 1016.5 hPa Calm     59 % 0.0 mm 248.0 W/m2 CLR
08:30 23.6 °C 14.6 °C 1016.5 hPa Calm     57 % 0.0 mm 262.0 W/m2 CLR
08:35 24.1 °C 15.3 °C 1016.5 hPa Calm     58 % 0.0 mm 276.0 W/m2 CLR
08:40 24.8 °C 15.9 °C 1016.1 hPa Calm     58 % 0.0 mm 294.0 W/m2 CLR
08:45 25.2 °C 16.1 °C 1016.1 hPa Calm     57 % 0.0 mm 309.0 W/m2 CLR
08:50 25.6 °C 16.7 °C 1016.1 hPa Calm     58 % 0.0 mm 325.0 W/m2 CLR
08:55 26.0 °C 17.1 °C 1016.1 hPa Calm     58 % 0.0 mm 339.0 W/m2 CLR
09:00 26.3 °C 17.3 °C 1016.1 hPa Calm     58 % 0.0 mm 357.0 W/m2 CLR
09:05 26.6 °C 17.3 °C 1016.1 hPa Calm     57 % 0.0 mm 371.0 W/m2 CLR
09:10 26.8 °C 17.6 °C 1016.1 hPa Calm     57 % 0.0 mm 385.0 W/m2 CLR
09:11 26.8 °C 17.3 °C 1016.1 hPa Calm     56 % 0.0 mm 388.0 W/m2 CLR
09:16 26.9 °C 17.7 °C 1016.1 hPa Calm     57 % 0.0 mm 403.0 W/m2 CLR
09:21 27.1 °C 17.6 °C 1016.1 hPa Calm     56 % 0.0 mm 417.0 W/m2 CLR
09:26 27.2 °C 17.7 °C 1016.1 hPa Calm     56 % 0.0 mm 429.0 W/m2 CLR
09:31 27.4 °C 17.8 °C 1016.5 hPa Calm     56 % 0.0 mm 446.0 W/m2 CLR
09:36 27.9 °C 18.0 °C 1016.1 hPa ENE 1.9 km/h 1.9 km/h 55 % 0.0 mm 461.0 W/m2 CLR
09:41 28.2 °C 18.1 °C 1016.1 hPa ENE 5.6 km/h   54 % 0.0 mm 476.0 W/m2 CLR
09:46 28.4 °C 17.6 °C 1016.1 hPa Calm     52 % 0.0 mm 490.0 W/m2 CLR
09:51 28.6 °C 17.7 °C 1016.1 hPa ENE 7.4 km/h 7.4 km/h 52 % 0.0 mm 508.0 W/m2 CLR
09:56 28.7 °C 17.8 °C 1016.1 hPa ESE 6.4 km/h 6.4 km/h 52 % 0.0 mm 520.0 W/m2 CLR
10:01 28.6 °C 17.5 °C 1016.1 hPa ENE 11.1 km/h 11.1 km/h 51 % 0.0 mm 534.0 W/m2 CLR
10:06 28.8 °C 17.4 °C 1016.1 hPa ENE 7.4 km/h 7.4 km/h 50 % 0.0 mm 548.0 W/m2 CLR
10:11 29.0 °C 17.5 °C 1016.1 hPa East 9.7 km/h 9.7 km/h 50 % 0.0 mm 564.0 W/m2 CLR
10:16 29.0 °C 18.4 °C 1016.1 hPa NE 9.7 km/h 9.7 km/h 53 % 0.0 mm 577.0 W/m2 CLR
10:21 29.2 °C 18.1 °C 1016.1 hPa ENE 7.4 km/h 7.4 km/h 51 % 0.0 mm 592.0 W/m2 CLR
10:26 29.5 °C 17.7 °C 1016.1 hPa ENE 6.4 km/h 6.4 km/h 49 % 0.0 mm 605.0 W/m2 CLR
10:31 29.9 °C 16.3 °C 1016.1 hPa East 7.4 km/h 7.4 km/h 44 % 0.0 mm 622.0 W/m2 CLR
10:36 30.0 °C 16.4 °C 1016.1 hPa East 13.0 km/h 13.0 km/h 44 % 0.0 mm 635.0 W/m2 CLR
10:41 30.0 °C 15.3 °C 1016.1 hPa East 9.3 km/h 9.3 km/h 41 % 0.0 mm 645.0 W/m2 CLR
10:47 30.2 °C 15.4 °C 1016.1 hPa ESE 11.1 km/h 11.1 km/h 41 % 0.0 mm 659.0 W/m2 CLR
10:52 30.2 °C 15.5 °C 1016.1 hPa ESE 12.9 km/h 12.9 km/h 41 % 0.0 mm 673.0 W/m2 CLR
10:57 30.3 °C 15.2 °C 1015.8 hPa ESE 16.1 km/h 16.1 km/h 40 % 0.0 mm 684.0 W/m2 CLR
11:02 30.6 °C 15.1 °C 1016.1 hPa ESE 11.3 km/h 11.3 km/h 39 % 0.0 mm 696.0 W/m2 CLR
11:07 30.7 °C 14.8 °C 1016.1 hPa ESE 14.8 km/h 14.8 km/h 38 % 0.0 mm 707.0 W/m2 CLR
11:12 30.8 °C 14.8 °C 1016.1 hPa ENE 9.3 km/h 9.3 km/h 38 % 0.0 mm 719.0 W/m2 CLR
11:17 31.1 °C 15.4 °C 1016.1 hPa NE 14.8 km/h 14.8 km/h 39 % 0.0 mm 728.0 W/m2 CLR
11:22 31.2 °C 15.9 °C 1016.1 hPa ESE 14.8 km/h 14.8 km/h 40 % 0.0 mm 738.0 W/m2 CLR
11:27 31.2 °C 15.6 °C 1016.1 hPa ESE 16.7 km/h 16.7 km/h 39 % 0.0 mm 747.0 W/m2 CLR
11:32 31.2 °C 16.3 °C 1016.1 hPa ESE 13.0 km/h 13.0 km/h 41 % 0.0 mm 761.0 W/m2 CLR
11:37 31.3 °C 16.4 °C 1016.1 hPa ESE 22.2 km/h 22.2 km/h 41 % 0.0 mm 770.0 W/m2 CLR
11:42 31.2 °C 16.8 °C 1016.1 hPa ESE 29.6 km/h 29.6 km/h 42 % 0.0 mm 780.0 W/m2 CLR
11:47 31.1 °C 16.7 °C 1016.1 hPa ESE 24.1 km/h 24.1 km/h 42 % 0.0 mm 791.0 W/m2 CLR
11:52 31.3 °C 16.8 °C 1015.8 hPa ESE 22.2 km/h 22.2 km/h 42 % 0.0 mm 798.0 W/m2 CLR
11:57 31.4 °C 16.9 °C 1016.1 hPa ESE 27.4 km/h 27.4 km/h 42 % 0.0 mm 807.0 W/m2 CLR
12:02 31.1 °C 16.7 °C 1015.8 hPa SE 31.5 km/h 31.5 km/h 42 % 0.0 mm 812.0 W/m2 CLR
12:07 31.3 °C 17.2 °C 1015.8 hPa ESE 20.4 km/h 20.4 km/h 43 % 0.0 mm 824.0 W/m2 CLR
12:12 31.6 °C 16.3 °C 1015.8 hPa SE 24.1 km/h 24.1 km/h 40 % 0.0 mm 835.0 W/m2 CLR
12:17 31.7 °C 16.4 °C 1015.8 hPa East 27.8 km/h 27.8 km/h 40 % 0.0 mm 838.0 W/m2 CLR
12:22 31.6 °C 17.1 °C 1015.8 hPa ESE 31.5 km/h 31.5 km/h 42 % 0.0 mm 844.0 W/m2 CLR
12:27 31.9 °C 16.6 °C 1015.8 hPa East 22.2 km/h 22.2 km/h 40 % 0.0 mm 846.0 W/m2 CLR
12:32 31.6 °C 16.3 °C 1015.8 hPa ESE 22.2 km/h 22.2 km/h 40 % 0.0 mm 860.0 W/m2 CLR
12:37 31.9 °C 17.0 °C 1015.8 hPa ESE 24.1 km/h 24.1 km/h 41 % 0.0 mm 867.0 W/m2 CLR
12:42 31.9 °C 17.4 °C 1015.8 hPa East 22.2 km/h 22.2 km/h 42 % 0.0 mm 868.0 W/m2 CLR
12:47 32.2 °C 17.2 °C 1015.8 hPa East 24.1 km/h 24.1 km/h 41 % 0.0 mm 874.0 W/m2 CLR
12:52 32.1 °C 17.2 °C 1015.8 hPa ESE 27.8 km/h 27.8 km/h 41 % 0.0 mm 874.0 W/m2 CLR
12:57 31.9 °C 17.1 °C 1015.8 hPa ESE 27.4 km/h 27.4 km/h 41 % 0.0 mm 884.0 W/m2 CLR
13:02 31.9 °C 17.4 °C 1015.8 hPa ESE 32.2 km/h 32.2 km/h 42 % 0.0 mm 884.0 W/m2 CLR
13:07 32.0 °C 17.8 °C 1015.8 hPa SE 25.9 km/h 25.9 km/h 43 % 0.0 mm 891.0 W/m2 CLR
13:08 32.0 °C 17.8 °C 1015.8 hPa SSE 24.1 km/h 24.1 km/h 43 % 0.0 mm 891.0 W/m2 CLR
13:13 32.1 °C 17.6 °C 1015.8 hPa ESE 25.9 km/h 25.9 km/h 42 % 0.0 mm 895.0 W/m2 CLR
13:18 32.1 °C 17.9 °C 1015.8 hPa ESE 29.6 km/h 29.6 km/h 43 % 0.0 mm 898.0 W/m2 CLR
13:23 32.4 °C 17.9 °C 1015.8 hPa ESE 25.9 km/h 25.9 km/h 42 % 0.0 mm 904.0 W/m2 CLR
13:28 32.6 °C 18.3 °C 1015.5 hPa SE 13.0 km/h 13.0 km/h 43 % 0.0 mm 904.0 W/m2 CLR
13:34 32.4 °C 17.5 °C 1015.5 hPa ESE 33.3 km/h 33.3 km/h 41 % 0.0 mm 905.0 W/m2 CLR
13:39 32.4 °C 18.2 °C 1015.5 hPa East 22.2 km/h 22.2 km/h 43 % 0.0 mm 911.0 W/m2 CLR
13:44 32.4 °C 18.3 °C 1015.5 hPa East 31.5 km/h 31.5 km/h 43 % 0.0 mm 911.0 W/m2 CLR
13:49 32.6 °C 18.1 °C 1015.5 hPa ESE 22.5 km/h 22.5 km/h 42 % 0.0 mm 914.0 W/m2 CLR
13:54 32.7 °C 18.1 °C 1015.5 hPa ESE 25.9 km/h 25.9 km/h 42 % 0.0 mm 912.0 W/m2 CLR
13:59 33.1 °C 17.3 °C 1015.5 hPa South 22.2 km/h 22.2 km/h 39 % 0.0 mm 916.0 W/m2 CLR
14:04 32.9 °C 17.9 °C 1015.5 hPa East 24.1 km/h 24.1 km/h 41 % 0.0 mm 914.0 W/m2 CLR
14:09 33.1 °C 17.7 °C 1015.5 hPa SE 29.6 km/h 29.6 km/h 40 % 0.0 mm 916.0 W/m2 CLR
14:14 33.0 °C 18.4 °C 1015.5 hPa SE 27.8 km/h 27.8 km/h 42 % 0.0 mm 916.0 W/m2 CLR
14:19 32.8 °C 18.2 °C 1015.5 hPa ESE 31.5 km/h 31.5 km/h 42 % 0.0 mm 912.0 W/m2 CLR
14:24 32.7 °C 18.1 °C 1015.1 hPa ESE 29.6 km/h 29.6 km/h 42 % 0.0 mm 909.0 W/m2 CLR
14:29 32.6 °C 18.4 °C 1015.1 hPa ESE 29.6 km/h 29.6 km/h 43 % 0.0 mm 905.0 W/m2 CLR
14:34 32.7 °C 18.4 °C 1015.1 hPa ESE 33.3 km/h 33.3 km/h 43 % 0.0 mm 904.0 W/m2 CLR
14:39 32.6 °C 18.4 °C 1015.1 hPa East 22.2 km/h 22.2 km/h 43 % 0.0 mm 900.0 W/m2 CLR
14:44 32.8 °C 18.2 °C 1015.1 hPa ESE 27.8 km/h 27.8 km/h 42 % 0.0 mm 898.0 W/m2 CLR
14:49 32.8 °C 18.9 °C 1015.1 hPa East 31.5 km/h 31.5 km/h 44 % 0.0 mm 895.0 W/m2 CLR
14:54 32.9 °C 18.3 °C 1015.1 hPa ESE 27.8 km/h 27.8 km/h 42 % 0.0 mm 893.0 W/m2 CLR
14:59 32.6 °C 18.3 °C 1015.1 hPa ESE 31.5 km/h 31.5 km/h 43 % 0.0 mm 888.0 W/m2 CLR
15:04 32.7 °C 18.5 °C 1015.1 hPa ESE 33.3 km/h 33.3 km/h 43 % 0.0 mm 886.0 W/m2 CLR
15:09 32.7 °C 18.5 °C 1015.1 hPa ESE 30.6 km/h 30.6 km/h 43 % 0.0 mm 882.0 W/m2 CLR
15:14 32.6 °C 18.3 °C 1014.8 hPa ESE 31.5 km/h 31.5 km/h 43 % 0.0 mm 872.0 W/m2 CLR
15:19 32.7 °C 18.8 °C 1014.8 hPa East 20.4 km/h 20.4 km/h 44 % 0.0 mm 863.0 W/m2 CLR
15:24 33.0 °C 18.4 °C 1014.8 hPa SE 29.6 km/h 29.6 km/h 42 % 0.0 mm 865.0 W/m2 CLR
15:29 32.9 °C 17.6 °C 1014.8 hPa ESE 31.5 km/h 31.5 km/h 40 % 0.0 mm 856.0 W/m2 CLR
15:31 33.0 °C 17.6 °C 1014.8 hPa ESE 37.0 km/h 37.0 km/h 40 % 0.0 mm 853.0 W/m2 CLR
15:36 33.3 °C 17.8 °C 1014.8 hPa SSE 24.1 km/h 24.1 km/h 40 % 0.0 mm 842.0 W/m2 CLR
15:41 33.2 °C 17.8 °C 1014.8 hPa SE 31.5 km/h 31.5 km/h 40 % 0.0 mm 835.0 W/m2 CLR
15:46 33.3 °C 17.8 °C 1014.8 hPa SE 31.5 km/h 31.5 km/h 40 % 0.0 mm 831.0 W/m2 CLR
15:51 33.1 °C 17.7 °C 1014.8 hPa SE 31.5 km/h 31.5 km/h 40 % 0.0 mm 828.0 W/m2 CLR
15:56 32.9 °C 17.6 °C 1014.8 hPa ESE 35.4 km/h 35.4 km/h 40 % 0.0 mm 817.0 W/m2 CLR
16:01 32.9 °C 17.9 °C 1014.8 hPa East 35.2 km/h 35.2 km/h 41 % 0.0 mm 810.0 W/m2 CLR
16:06 32.7 °C 18.1 °C 1014.8 hPa ESE 35.2 km/h 35.2 km/h 42 % 0.0 mm 805.0 W/m2 CLR
16:11 32.7 °C 18.1 °C 1014.8 hPa SSE 29.6 km/h 29.6 km/h 42 % 0.0 mm 791.0 W/m2 CLR
16:16 32.7 °C 18.1 °C 1014.8 hPa SE 35.2 km/h 35.2 km/h 42 % 0.0 mm 786.0 W/m2 CLR
16:21 32.7 °C 18.1 °C 1014.8 hPa SE 35.4 km/h 35.4 km/h 42 % 0.0 mm 775.0 W/m2 CLR
16:26 32.6 °C 18.1 °C 1014.8 hPa ESE 22.2 km/h 22.2 km/h 42 % 0.0 mm 763.0 W/m2 CLR
16:31 32.7 °C 18.5 °C 1014.8 hPa SE 35.2 km/h 35.2 km/h 43 % 0.0 mm 752.0 W/m2 CLR
16:36 32.7 °C 18.4 °C 1014.8 hPa ESE 25.7 km/h 25.7 km/h 43 % 0.0 mm 742.0 W/m2 CLR
16:41 32.8 °C 18.6 °C 1014.4 hPa SSE 24.1 km/h 24.1 km/h 43 % 0.0 mm 731.0 W/m2 CLR
16:46 32.7 °C 18.5 °C 1014.4 hPa SE 27.8 km/h 27.8 km/h 43 % 0.0 mm 717.0 W/m2 CLR
16:51 32.4 °C 18.6 °C 1014.8 hPa SE 31.5 km/h 31.5 km/h 44 % 0.0 mm 710.0 W/m2 CLR
16:56 32.6 °C 19.1 °C 1014.8 hPa ESE 18.5 km/h 18.5 km/h 45 % 0.0 mm 696.0 W/m2 CLR
17:01 32.6 °C 18.8 °C 1014.8 hPa SE 24.1 km/h 24.1 km/h 44 % 0.0 mm 684.0 W/m2 CLR
17:06 32.5 °C 19.1 °C 1014.8 hPa SE 24.1 km/h 24.1 km/h 45 % 0.0 mm 671.0 W/m2 CLR
17:11 32.2 °C 19.1 °C 1014.4 hPa SE 31.5 km/h 31.5 km/h 46 % 0.0 mm 657.0 W/m2 CLR
17:16 32.1 °C 19.7 °C 1014.4 hPa SE 13.0 km/h 13.0 km/h 48 % 0.0 mm 647.0 W/m2 CLR
17:21 32.2 °C 18.8 °C 1014.4 hPa SE 24.1 km/h 24.1 km/h 45 % 0.0 mm 631.0 W/m2 CLR
17:26 32.1 °C 18.7 °C 1014.4 hPa ESE 22.2 km/h 22.2 km/h 45 % 0.0 mm 619.0 W/m2 CLR
17:31 32.3 °C 18.9 °C 1014.4 hPa SE 31.5 km/h 31.5 km/h 45 % 0.0 mm 606.0 W/m2 CLR
17:36 32.3 °C 18.9 °C 1014.4 hPa SE 31.5 km/h 31.5 km/h 45 % 0.0 mm 592.0 W/m2 CLR
17:41 32.1 °C 18.7 °C 1014.1 hPa SE 24.1 km/h 24.1 km/h 45 % 0.0 mm 578.0 W/m2 CLR
17:46 32.1 °C 18.3 °C 1014.1 hPa SE 33.3 km/h 33.3 km/h 44 % 0.0 mm 573.0 W/m2 CLR
17:51 32.3 °C 18.4 °C 1014.1 hPa SE 27.4 km/h 27.4 km/h 44 % 0.0 mm 557.0 W/m2 CLR
17:56 32.1 °C 18.3 °C 1014.1 hPa ESE 31.5 km/h 31.5 km/h 44 % 0.0 mm 545.0 W/m2 CLR
18:01 31.9 °C 18.2 °C 1014.1 hPa SSE 22.2 km/h 22.2 km/h 44 % 0.0 mm 531.0 W/m2 CLR
18:06 32.0 °C 17.8 °C 1014.1 hPa SE 25.9 km/h 25.9 km/h 43 % 0.0 mm 517.0 W/m2 CLR
18:11 32.0 °C 17.8 °C 1014.1 hPa ESE 24.1 km/h 24.1 km/h 43 % 0.0 mm 501.0 W/m2 CLR
18:16 31.8 °C 17.7 °C 1014.1 hPa SE 31.5 km/h 31.5 km/h 43 % 0.0 mm 487.0 W/m2 CLR
18:21 31.8 °C 17.7 °C 1014.1 hPa SE 24.1 km/h 24.1 km/h 43 % 0.0 mm 473.0 W/m2 CLR
18:26 31.9 °C 17.8 °C 1014.1 hPa SSE 22.2 km/h 22.2 km/h 43 % 0.0 mm 461.0 W/m2 CLR
18:31 31.8 °C 17.3 °C 1014.1 hPa ESE 27.8 km/h 27.8 km/h 42 % 0.0 mm 443.0 W/m2 CLR
18:36 31.6 °C 17.1 °C 1014.1 hPa SSE 35.2 km/h 35.2 km/h 42 % 0.0 mm 429.0 W/m2 CLR
18:41 31.4 °C 17.0 °C 1014.1 hPa SE 35.2 km/h 35.2 km/h 42 % 0.0 mm 415.0 W/m2 CLR
18:47 31.6 °C 16.7 °C 1014.1 hPa South 20.4 km/h 20.4 km/h 41 % 0.0 mm 403.0 W/m2 CLR
18:52 31.7 °C 16.8 °C 1014.1 hPa SSE 19.3 km/h 19.3 km/h 41 % 0.0 mm 385.0 W/m2 CLR
18:57 31.7 °C 16.4 °C 1014.1 hPa SE 24.1 km/h 24.1 km/h 40 % 0.0 mm 371.0 W/m2 CLR
19:02 31.6 °C 16.4 °C 1014.1 hPa SE 20.4 km/h 20.4 km/h 40 % 0.0 mm 355.0 W/m2 CLR
19:06 31.7 °C 16.4 °C 1014.4 hPa SE 25.9 km/h 25.9 km/h 40 % 0.0 mm 343.0 W/m2 CLR
19:12 31.3 °C 16.1 °C 1014.4 hPa SSE 24.1 km/h 24.1 km/h 40 % 0.0 mm 327.0 W/m2 CLR
19:17 31.4 °C 16.2 °C 1014.4 hPa SSE 18.5 km/h 18.5 km/h 40 % 0.0 mm 309.0 W/m2 CLR
19:21 31.3 °C 15.7 °C 1014.4 hPa SSE 25.9 km/h 25.9 km/h 39 % 0.0 mm 297.0 W/m2 CLR
19:27 31.3 °C 15.7 °C 1014.4 hPa South 18.5 km/h 18.5 km/h 39 % 0.0 mm 281.0 W/m2 CLR
19:32 31.3 °C 15.3 °C 1014.4 hPa SSE 22.5 km/h 22.5 km/h 38 % 0.0 mm 269.0 W/m2 CLR
19:37 31.3 °C 14.5 °C 1014.4 hPa South 20.4 km/h 20.4 km/h 36 % 0.0 mm 248.0 W/m2 CLR
19:42 31.1 °C 14.3 °C 1014.8 hPa South 20.4 km/h 20.4 km/h 36 % 0.0 mm 97.0 W/m2 CLR
19:47 30.8 °C 14.1 °C 1014.8 hPa South 18.5 km/h 18.5 km/h 36 % 0.0 mm 100.0 W/m2 CLR
19:52 30.7 °C 13.4 °C 1014.8 hPa South 24.1 km/h 24.1 km/h 35 % 0.0 mm 58.0 W/m2 CLR
19:57 30.4 °C 13.7 °C 1014.8 hPa SSW 25.9 km/h 25.9 km/h 36 % 0.0 mm 49.0 W/m2 FEW
20:02 30.2 °C 13.5 °C 1014.8 hPa SSW 14.8 km/h 14.8 km/h 36 % 0.0 mm 39.0 W/m2 SCT
20:07 30.1 °C 13.8 °C 1014.8 hPa SSE 11.1 km/h 11.1 km/h 37 % 0.0 mm 35.0 W/m2 BKN
20:12 30.0 °C 13.7 °C 1014.8 hPa SSE 25.9 km/h 25.9 km/h 37 % 0.0 mm 33.0 W/m2 BKN
20:17 29.8 °C 13.6 °C 1014.8 hPa South 24.1 km/h 24.1 km/h 37 % 0.0 mm 32.0 W/m2 BKN
20:22 29.6 °C 13.4 °C 1014.8 hPa SSW 18.5 km/h 18.5 km/h 37 % 0.0 mm 32.0 W/m2 BKN
20:27 29.6 °C 13.7 °C 1014.8 hPa SSE 22.2 km/h 22.2 km/h 38 % 0.0 mm 30.0 W/m2 BKN
20:32 29.4 °C 13.6 °C 1014.8 hPa SSE 29.0 km/h 29.0 km/h 38 % 0.0 mm 28.0 W/m2 BKN
20:37 29.3 °C 13.6 °C 1015.1 hPa SSE 24.1 km/h 24.1 km/h 38 % 0.0 mm 26.0 W/m2 BKN
20:42 29.2 °C 13.8 °C 1015.1 hPa SSE 22.2 km/h 22.2 km/h 39 % 0.0 mm 25.0 W/m2 BKN
20:47 29.1 °C 13.7 °C 1015.1 hPa SE 31.5 km/h 31.5 km/h 39 % 0.0 mm 23.0 W/m2 BKN
20:52 29.0 °C 13.7 °C 1015.1 hPa South 22.2 km/h 22.2 km/h 39 % 0.0 mm 21.0 W/m2 BKN
20:53 29.0 °C 13.7 °C 1015.1 hPa South 20.4 km/h 20.4 km/h 39 % 0.0 mm 19.0 W/m2 BKN
20:58 28.9 °C 13.6 °C 1015.1 hPa SSE 18.5 km/h 18.5 km/h 39 % 0.0 mm 18.0 W/m2 BKN
21:03 28.8 °C 13.8 °C 1015.5 hPa South 18.5 km/h 18.5 km/h 40 % 0.0 mm 16.0 W/m2 BKN
21:08 28.7 °C 13.7 °C 1015.5 hPa South 18.5 km/h 18.5 km/h 40 % 0.0 mm 14.0 W/m2 BKN
21:13 28.6 °C 13.6 °C 1015.5 hPa South 14.5 km/h 14.5 km/h 40 % 0.0 mm 11.0 W/m2 BKN
21:18 28.4 °C 13.6 °C 1015.5 hPa SSE 12.9 km/h 12.9 km/h 40 % 0.0 mm 9.0 W/m2 BKN
21:23 28.3 °C 13.4 °C 1015.5 hPa SSE 9.3 km/h 9.3 km/h 40 % 0.0 mm 7.0 W/m2 BKN
21:28 28.2 °C 13.3 °C 1015.5 hPa SSE 14.8 km/h 14.8 km/h 40 % 0.0 mm 0.0 W/m2 OVC
21:33 28.1 °C 13.2 °C 1015.5 hPa South 5.6 km/h 5.6 km/h 40 % 0.0 mm 0.0 W/m2 OVC
21:38 28.0 °C 13.2 °C 1015.5 hPa South 7.4 km/h 7.4 km/h 40 % 0.0 mm 0.0 W/m2 OVC
21:43 27.9 °C 13.4 °C 1015.8 hPa South 13.0 km/h 13.8 km/h 41 % 0.0 mm 0.0 W/m2 OVC
21:48 27.8 °C 13.3 °C 1015.5 hPa SSE 13.0 km/h 13.0 km/h 41 % 0.0 mm 0.0 W/m2 CLR
21:53 27.7 °C 13.2 °C 1015.8 hPa SSE 14.8 km/h 14.8 km/h 41 % 0.0 mm 0.0 W/m2 CLR
21:59 27.6 °C 13.1 °C 1015.8 hPa SE 6.4 km/h 6.4 km/h 41 % 0.0 mm 0.0 W/m2 CLR
22:03 27.5 °C 13.1 °C 1015.8 hPa SSE 11.1 km/h 11.1 km/h 41 % 0.0 mm 0.0 W/m2 CLR
22:08 27.4 °C 13.0 °C 1015.8 hPa SSE 14.8 km/h 14.8 km/h 41 % 0.0 mm 0.0 W/m2 CLR
22:13 27.4 °C 12.9 °C 1015.8 hPa Calm     41 % 0.0 mm 0.0 W/m2 CLR
22:18 27.3 °C 12.9 °C 1016.1 hPa SSE 14.8 km/h 14.8 km/h 41 % 0.0 mm 0.0 W/m2 CLR
22:23 27.3 °C 12.9 °C 1016.1 hPa South 14.8 km/h 14.8 km/h 41 % 0.0 mm 0.0 W/m2 CLR
22:28 27.3 °C 12.9 °C 1016.5 hPa SE 14.8 km/h 14.8 km/h 41 % 0.0 mm 0.0 W/m2 CLR
22:33 27.3 °C 12.9 °C 1016.5 hPa Calm     41 % 0.0 mm 0.0 W/m2 CLR
22:39 27.2 °C 12.8 °C 1016.5 hPa Calm     41 % 0.0 mm 0.0 W/m2 CLR
22:44 27.2 °C 13.2 °C 1016.5 hPa SE 1.9 km/h   42 % 0.0 mm 0.0 W/m2 CLR
22:49 27.1 °C 12.7 °C 1016.5 hPa South 11.1 km/h 11.1 km/h 41 % 0.0 mm 0.0 W/m2 CLR
22:54 27.1 °C 12.7 °C 1016.5 hPa Calm     41 % 0.0 mm 0.0 W/m2 CLR
22:59 27.0 °C 13.0 °C 1016.5 hPa Calm     42 % 0.0 mm 0.0 W/m2 CLR
23:04 26.9 °C 12.9 °C 1016.8 hPa Calm     42 % 0.0 mm 0.0 W/m2 CLR
23:09 26.8 °C 12.8 °C 1016.8 hPa Calm     42 % 0.0 mm 0.0 W/m2 CLR
23:14 26.8 °C 12.8 °C 1016.8 hPa Calm     42 % 0.0 mm 0.0 W/m2 CLR
23:19 26.7 °C 12.7 °C 1017.2 hPa Calm     42 % 0.0 mm 0.0 W/m2 CLR
23:24 26.6 °C 13.0 °C 1016.8 hPa SE 7.4 km/h 7.4 km/h 43 % 0.0 mm 0.0 W/m2 CLR
23:29 26.6 °C 12.9 °C 1017.2 hPa SE 5.6 km/h 5.6 km/h 43 % 0.0 mm 0.0 W/m2 CLR
23:34 26.5 °C 12.9 °C 1017.2 hPa Calm     43 % 0.0 mm 0.0 W/m2 CLR
23:39 26.4 °C 12.8 °C 1017.2 hPa Calm     43 % 0.0 mm 0.0 W/m2 CLR
23:40 26.4 °C 12.8 °C 1017.2 hPa Calm     43 % 0.0 mm 0.0 W/m2 CLR
23:45 26.4 °C 12.8 °C 1017.2 hPa Calm     43 % 0.0 mm 0.0 W/m2 CLR
23:50 26.4 °C 12.4 °C 1017.2 hPa Calm     42 % 0.0 mm 0.0 W/m2 CLR
23:55 26.4 °C 12.4 °C 1017.2 hPa Calm     42 % 0.0 mm 0.0 W/m2 CLR
Lo Temps de Massalio
Compliments of Weather Underground - 1.25 mb